BREEZE-M DEB, 41319

Orbit data source: Space-Track

BREEZE-M DEB, 41319 is space debris in HEO originally from a launch on Thu, 17 May 2012 UTC launched from the Tyuratam Missile And Space Complex (TTMTR). Debris objects in space refer to the collection of defunct objects orbiting the Earth. Examples of debris include non-operational satellites, rocket bodies, and fragments generated from explosions, collisions, or faulty payload assembly.

Loading next visibility...
Identifier
41319, 2012-026F
Orbit
HEO
Country
Flag of CISCIS
Related business
Manufacturer
Khrunichev
Mission
Spacecraft
Bus & Motor
Unknown
Mass
Unknown
Launch date (UTC)
2012-05-17 (13 years ago)
Launch vehicle
Unknown
Launch site
Tyuratam Missile And Space Complex (TTMTR)
Object type
Payload
Rocket body
Debris
Shape & HBR
Unknown
Radar Cross Section
RCS unknown

Expand to show TLE details & history
Last TLE update: 4 days ago

TLE from 4 days ago
0 BREEZE-M DEB
1 41319U 12026F   25258.39680657 -.00000138  00000-0  00000-0 0  9998
2 41319  10.0091 163.1742 4087125 357.7232   0.9054  1.76695244 62764
Epoch: 2025-09-15T09:31Z
TLE epoch observation values (Epoch: 2025-09-15T09:31:24.087Z)
Latitude
-0.00007°
Longitude
25.71921°
Altitude
10,692.314 km
Speed
5.737 km/s
True Right ascension
10h 52m 41s
True Declination
0° 00' 00"
Sunlit
Object was in daylight at epoch
Visualization orbit readout
Latitude
Unknown
Longitude
Unknown
Altitude
Unknown
Speed
Unknown
Apparent Right ascension
Unknown
Apparent Declination
Unknown
Sunlit
N/A
Visualization observer readout
Local Sidereal Time
14:40:06
Azimuth
Unknown
Elevation
Unknown
Doppler factor
Unknown
Orbital elements
Apogee altitude
34,338.321 km
Perigee altitude
10,712.031 km
Semi-major axis
28,903.313 km
Eccentricity
0.40871
Inclination
10.0091°
RAAN
163.1742°
Arg. of periapsis
357.7232°
True anomaly
2.3631°
Mean anomaly
0.9054°
Eccentric anomaly
1.53111°
Mean motion
0.44169 °/min
Orbital period
815.04 mins
BSTAR
0
Loading maneuver chart data...
Computing Atmospheric mass density...
Loading historical data...
Loading historical data...
Loading historical data...
Loading historical data...
Loading historical data...
Loading historical data...
Loading historical data...

Documentation

Showing up to 5 results
|